Location: Ciula Mare
(45.6000°N, 22.8167°E)
Time: 11:01:10
(UTC+00:00)

CZ-4 R/B - Pass Details

Date: 03 February 2023
Orbit: 525 x 587 km, 97.7° (Epoch: 21 March)

Event Time Altitude Azimuth Distance (km) Brightness Sun altitude
Rises 18:00:06 0° 182° (S) 2,801 4.9 -25.1°
Reaches altitude 10° 18:02:20 10° 189° (S) 1,901 4.1 -25.5°
Maximum altitude 18:06:16 43° 261° (W) 825 2.6 -26.2°
Drops below altitude 10° 18:10:11 10° 334° (NNW) 1,887 4.4 -26.9°
Sets 18:12:25 0° 341° (NNW) 2,779 5.2 -27.3°
